Regional Weather Roundup
Issued by NWS

Home | Current Version | Previous Version | Graphics & Text | Print | Product List | Glossary On
Versions: 1 2 3 4 5 6 7 8 9 10 11 12 13 14 15 16 17 18 19 20 21 22 23 24 25 26 27 28 29 30 31 32 33 34 35 36 37 38 39 40 41 42 43 44 45 46 47 48 49 50
862
ASUS45 KCYS 230610
RWRWY

WYOMING REGIONAL WEATHER ROUNDUP
NATIONAL WEATHER SERVICE CHEYENNE WY
1200 AM MDT SAT JUL 23 2016

NOTE:  "FAIR" INDICATES FEW OR NO CLOUDS BELOW 12,000 FEET
WITH NO SIGNIFICANT WEATHER AND/OR OBSTRUCTIONS TO VISIBILITY.

WYZ001-230700-
YELLOWSTONE NATIONAL PARK

CITY           SKY/WX    TMP DP  RH WIND       PRES   REMARKS
LK YELLOWSTONE   N/A     54  25  32 CALM      30.29S
6HR MIN TEMP:  54; 6HR MAX TEMP:  78;

W YELLOWSTONE  NOT AVBL

$$
WYZ002>013-054>058-071-098>099-230700-
NORTHERN WYOMING

CITY           SKY/WX    TMP DP  RH WIND       PRES   REMARKS
JACKSON        FAIR      64  21  19 S9        30.22S
CODY           FAIR      75  28  17 SW10      30.01S
GREYBULL       FAIR      74  42  31 S5        29.90S
6HR MIN TEMP:  74; 6HR MAX TEMP:  94; 6HR PCP: TRACE;

WORLAND        FAIR      71  42  35 S7        29.93S
6HR MIN TEMP:  71; 6HR MAX TEMP:  96;

SHERIDAN       FAIR      75  42  30 W8        29.87S
6HR MIN TEMP:  70; 6HR MAX TEMP:  94;

BUFFALO        FAIR      75  42  30 SE9       29.98S
6HR MIN TEMP:  74; 6HR MAX TEMP:  94;

GILLETTE       FAIR      76  57  51 S10       29.92F
6HR MIN TEMP:  73; 6HR MAX TEMP:  94; 6HR PCP:  0.01;

HULETT         FAIR      73  55  53 S9        29.95F
NEWCASTLE      FAIR      77  46  33 SE16      30.00S

$$
WYZ014>020-022>026-101>103-230700-
CENTRAL WYOMING

CITY           SKY/WX    TMP DP  RH WIND       PRES   REMARKS
BIG PINEY      FAIR      61  34  36 N12       30.27S
6HR MIN TEMP:  58; 6HR MAX TEMP:  83;

PINEDALE       FAIR      52  50  93 NW5       30.29R
DUBOIS         FAIR      61  32  33 NW13      30.25S
LANDER         FAIR      76  41  28 SW13      30.08F
6HR MIN TEMP:  71; 6HR MAX TEMP:  83;

RIVERTON       FAIR      71  45  39 NW10      30.09S
6HR MIN TEMP:  71; 6HR MAX TEMP:  84;

CASPER         FAIR      66  44  45 SW8       30.07S
6HR MIN TEMP:  65; 6HR MAX TEMP:  96; 6HR PCP: TRACE;

DOUGLAS          N/A    N/A N/A N/A MISG      30.06F

$$
WYZ021-027>030-104>119-230700-
SOUTHERN WYOMING

CITY           SKY/WX    TMP DP  RH WIND       PRES   REMARKS
EVANSTON       FAIR      68  29  23 N8        30.31R
6HR MIN TEMP:  66; 6HR MAX TEMP:  87;

KEMMERER         N/A     61  32  33 N8        30.30R
FORT BRIDGER   FAIR      71  35  27 SW13      30.32R
ROCK SPRINGS   FAIR      70  37  29 SW12      30.23S
6HR MIN TEMP:  70; 6HR MAX TEMP:  84;

DIXON          FAIR      59  49  70 CALM      30.29S
RAWLINS        FAIR      72  39  30 W12       30.23S
6HR MIN TEMP:  71; 6HR MAX TEMP:  88;

SARATOGA       FAIR      66  41  39 S6        30.26S
LARAMIE        FAIR      61  45  55 S10       30.26F
6HR MIN TEMP:  61; 6HR MAX TEMP:  84;

CHEYENNE       MOCLDY    74  45  35 NW5       30.18R
6HR MIN TEMP:  74; 6HR MAX TEMP:  88;

TORRINGTON     FAIR      69  59  70 N3        30.03R
6HR MIN TEMP:  68; 6HR MAX TEMP:  87;

PINE BLUFFS    FAIR      70  59  68 SE20G28   30.11F

$$




USA.gov is the U.S. government's official web portal to all federal, state and local government web resources and services.